Location: Keewatin
(47.4004°N, 93.0827°W)
Time: 15:31:37
(UTC+00:00)

KKS-1 - Pass Details

Date: 01 March 2020
Orbit: 637 x 650 km, 98.3° (Epoch: 01 April)

Event Time Altitude Azimuth Distance (km) Brightness Sun altitude
Rises 00:55:32 0° 31° (NNE) 2,949 ? -10.7°
Reaches altitude 10° 00:58:39 10° 54° (NE) 2,033 ? -11.2°
Enters shadow 00:59:03 11° 59° (ENE) 1,950 ? -11.3°
